This is the latest recevied weather packets stored in our database for station/object OK2IGL-6. If no packets are shown the sender has not sent any weather packets the latest 10 day(s).
| Time | Temp. | Humidity | Pressure | Rain* | Wind** | Luminosity | Snow |
|---|---|---|---|---|---|---|---|
| 1777625146 | 17.78° C | 50% | 1025 hPa | - | - | - | - |
| 1777624716 | 17.22° C | 51% | 1026 hPa | - | - | - | - |
| 1777624287 | 16.67° C | 53% | 1025 hPa | - | - | - | - |
| 1777623857 | 16.11° C | 52% | 1025 hPa | - | - | - | - |
| 1777623428 | 16.11° C | 52% | 1025 hPa | - | - | - | - |
| 1777622998 | 16.11° C | 52% | 1025 hPa | - | - | - | - |
| 1777622569 | 15.56° C | 53% | 1025 hPa | - | - | - | - |
| 1777622139 | 15° C | 55% | 1025 hPa | - | - | - | - |
| 1777621710 | 14.44° C | 57% | 1026 hPa | - | - | - | - |
| 1777621281 | 13.89° C | 58% | 1025 hPa | - | - | - | - |
| 1777620690 | 13.33° C | 59% | 1026 hPa | - | - | - | - |
| 1777620261 | 12.78° C | 59% | 1026 hPa | - | - | - | - |
| 1777619831 | 12.22° C | 59% | 1026 hPa | - | - | - | - |
| 1777619401 | 12.22° C | 60% | 1026 hPa | - | - | - | - |
| 1777618972 | 12.22° C | 64% | 1026 hPa | - | - | - | - |
| 1777618543 | 12.22° C | 60% | 1026 hPa | - | - | - | - |
| 1777618113 | 11.11° C | 63% | 1026 hPa | - | - | - | - |
| 1777617684 | 11.11° C | 62% | 1026 hPa | - | - | - | - |
| 1777617254 | 11.11° C | 67% | 1025 hPa | - | - | - | - |
| 1777616825 | 10° C | 65% | 1025 hPa | - | - | - | - |
| 1777616395 | 9.44° C | 66% | 1025 hPa | - | - | - | - |
| 1777615966 | 8.89° C | 67% | 1025 hPa | - | - | - | - |
| 1777615536 | 8.89° C | 67% | 1026 hPa | - | - | - | - |
| 1777615107 | 7.78° C | 69% | 1026 hPa | - | - | - | - |
| 1777614678 | 7.78° C | 70% | 1025 hPa | - | - | - | - |
* Rain since midnight (hover to see other rain measurements)
** Current wind speed in m/s (hover to see current wind gust speed)